Year,Month,Day,Hour,Minute,Value (Times are PST for temperature in C)
2016,07,22,00,00,18.60
2016,07,22,00,01,18.60
2016,07,22,00,02,18.60
2016,07,22,00,03,18.60
2016,07,22,00,04,18.60
2016,07,22,00,05,18.60
2016,07,22,00,06,18.60
2016,07,22,00,07,18.60
2016,07,22,00,08,18.60
2016,07,22,00,09,18.60
2016,07,22,00,10,18.60
2016,07,22,00,11,18.60
2016,07,22,00,12,18.60
2016,07,22,00,13,18.60
2016,07,22,00,14,18.60
2016,07,22,00,15,18.60
2016,07,22,00,16,18.60
2016,07,22,00,17,18.60
2016,07,22,00,18,18.70
2016,07,22,00,19,18.70
2016,07,22,00,20,18.70
2016,07,22,00,21,18.70
2016,07,22,00,22,18.70
2016,07,22,00,23,18.70
2016,07,22,00,24,18.70
2016,07,22,00,25,18.70
2016,07,22,00,26,18.60
2016,07,22,00,27,18.60
2016,07,22,00,28,18.60
2016,07,22,00,29,18.50
2016,07,22,00,30,18.50
2016,07,22,00,31,18.50
2016,07,22,00,32,18.40
2016,07,22,00,33,18.40
2016,07,22,00,34,18.40
2016,07,22,00,35,18.40
2016,07,22,00,36,18.40
2016,07,22,00,37,18.40
2016,07,22,00,38,18.30
2016,07,22,00,39,18.30
2016,07,22,00,40,18.30
2016,07,22,00,41,18.30
2016,07,22,00,42,18.30
2016,07,22,00,43,18.30
2016,07,22,00,44,18.30
2016,07,22,00,45,18.30
2016,07,22,00,46,18.30
2016,07,22,00,47,18.30
2016,07,22,00,48,18.30
2016,07,22,00,49,18.30
2016,07,22,00,50,18.30
2016,07,22,00,51,18.30
2016,07,22,00,52,18.30
2016,07,22,00,53,18.30
2016,07,22,00,54,18.30
2016,07,22,00,55,18.30
2016,07,22,00,56,18.30
2016,07,22,00,57,18.30
2016,07,22,00,58,18.30
2016,07,22,00,59,18.30
2016,07,22,01,00,18.30
2016,07,22,01,01,18.30
2016,07,22,01,02,18.30
2016,07,22,01,03,18.30
2016,07,22,01,04,18.30
2016,07,22,01,05,18.30
2016,07,22,01,06,18.30
2016,07,22,01,07,18.30
2016,07,22,01,08,18.30
2016,07,22,01,09,18.30
2016,07,22,01,10,18.30
2016,07,22,01,11,18.40
2016,07,22,01,12,18.40
2016,07,22,01,13,18.40
2016,07,22,01,14,18.40
2016,07,22,01,15,18.40
2016,07,22,01,16,18.40
2016,07,22,01,17,18.50
2016,07,22,01,18,18.50
2016,07,22,01,19,18.50
2016,07,22,01,20,18.50
2016,07,22,01,21,18.50
2016,07,22,01,22,18.60
2016,07,22,01,23,18.60
2016,07,22,01,24,18.60
2016,07,22,01,25,18.70
2016,07,22,01,26,18.70
2016,07,22,01,27,18.70
2016,07,22,01,28,18.70
2016,07,22,01,29,18.70
2016,07,22,01,30,18.70
2016,07,22,01,31,18.80
2016,07,22,01,32,18.80
2016,07,22,01,33,18.80
2016,07,22,01,34,18.80
2016,07,22,01,35,18.80
2016,07,22,01,36,18.80
2016,07,22,01,37,18.70
2016,07,22,01,38,18.70
2016,07,22,01,39,18.70
2016,07,22,01,40,18.70
2016,07,22,01,41,18.70
2016,07,22,01,42,18.70
2016,07,22,01,43,18.60
2016,07,22,01,44,18.60
2016,07,22,01,45,18.60
2016,07,22,01,46,18.60
2016,07,22,01,47,18.50
2016,07,22,01,48,18.50
2016,07,22,01,49,18.40
2016,07,22,01,50,18.40
2016,07,22,01,51,18.40
2016,07,22,01,52,18.40
2016,07,22,01,53,18.30
2016,07,22,01,54,18.30
2016,07,22,01,55,18.30
2016,07,22,01,56,18.20
2016,07,22,01,57,18.20
2016,07,22,01,58,18.20
2016,07,22,01,59,18.20
2016,07,22,02,00,18.20
2016,07,22,02,01,18.20
2016,07,22,02,02,18.10
2016,07,22,02,03,18.10
2016,07,22,02,04,18.10
2016,07,22,02,05,18.10
2016,07,22,02,06,18.10
2016,07,22,02,07,18.10
2016,07,22,02,08,18.00
2016,07,22,02,09,18.10
2016,07,22,02,10,18.00
2016,07,22,02,11,18.00
2016,07,22,02,12,18.00
2016,07,22,02,13,17.90
2016,07,22,02,14,17.90
2016,07,22,02,15,17.90
2016,07,22,02,16,17.90
2016,07,22,02,17,17.80
2016,07,22,02,18,17.80
2016,07,22,02,19,17.80
2016,07,22,02,20,17.70
2016,07,22,02,21,17.70
2016,07,22,02,22,17.70
2016,07,22,02,23,17.60
2016,07,22,02,24,17.60
2016,07,22,02,25,17.60
2016,07,22,02,26,17.60
2016,07,22,02,27,17.60
2016,07,22,02,28,17.50
2016,07,22,02,29,17.50
2016,07,22,02,30,17.50
2016,07,22,02,31,17.50
2016,07,22,02,32,17.50
2016,07,22,02,33,17.40
2016,07,22,02,34,17.40
2016,07,22,02,35,17.40
2016,07,22,02,36,17.40
2016,07,22,02,37,17.40
2016,07,22,02,38,17.40
2016,07,22,02,39,17.40
2016,07,22,02,40,17.30
2016,07,22,02,41,17.30
2016,07,22,02,42,17.30
2016,07,22,02,43,17.30
2016,07,22,02,44,17.30
2016,07,22,02,45,17.30
2016,07,22,02,46,17.30
2016,07,22,02,47,17.30
2016,07,22,02,48,17.40
2016,07,22,02,49,17.40
2016,07,22,02,50,17.40
2016,07,22,02,51,17.40
2016,07,22,02,52,17.40
2016,07,22,02,53,17.40
2016,07,22,02,54,17.40
2016,07,22,02,55,17.40
2016,07,22,02,56,17.40
2016,07,22,02,57,17.40
2016,07,22,02,58,17.40
2016,07,22,02,59,17.40
2016,07,22,03,00,17.40
2016,07,22,03,01,17.40
2016,07,22,03,02,17.40
2016,07,22,03,03,17.40
2016,07,22,03,04,17.30
2016,07,22,03,05,17.30
2016,07,22,03,06,17.30
2016,07,22,03,07,17.30
2016,07,22,03,08,17.30
2016,07,22,03,09,17.30
2016,07,22,03,10,17.30
2016,07,22,03,11,17.20
2016,07,22,03,12,17.20
2016,07,22,03,13,17.20
2016,07,22,03,14,17.20
2016,07,22,03,15,17.20
2016,07,22,03,16,17.20
2016,07,22,03,17,17.10
2016,07,22,03,18,17.10
2016,07,22,03,19,17.10
2016,07,22,03,20,17.10
2016,07,22,03,21,17.10
2016,07,22,03,22,17.10
2016,07,22,03,23,17.10
2016,07,22,03,24,17.00
2016,07,22,03,25,17.00
2016,07,22,03,26,17.00
2016,07,22,03,27,16.90
2016,07,22,03,28,16.90
2016,07,22,03,29,16.90
2016,07,22,03,30,16.90
2016,07,22,03,31,16.90
2016,07,22,03,32,16.90
2016,07,22,03,33,16.90
2016,07,22,03,34,16.90
2016,07,22,03,35,16.80
2016,07,22,03,36,16.80
2016,07,22,03,37,16.80
2016,07,22,03,38,16.80
2016,07,22,03,39,16.80
2016,07,22,03,40,16.80
2016,07,22,03,41,16.80
2016,07,22,03,42,16.80
2016,07,22,03,43,16.90
2016,07,22,03,44,16.90
2016,07,22,03,45,16.80
2016,07,22,03,46,16.80
2016,07,22,03,47,16.80
2016,07,22,03,48,16.80
2016,07,22,03,49,16.80
2016,07,22,03,50,16.80
2016,07,22,03,51,16.80
2016,07,22,03,52,16.70
2016,07,22,03,53,16.70
2016,07,22,03,54,16.70
2016,07,22,03,55,16.70
2016,07,22,03,56,16.70
2016,07,22,03,57,16.70
2016,07,22,03,58,16.70
2016,07,22,03,59,16.70
2016,07,22,04,00,16.70
2016,07,22,04,01,16.70
2016,07,22,04,02,16.70
2016,07,22,04,03,16.70
2016,07,22,04,04,16.70
2016,07,22,04,05,16.70
2016,07,22,04,06,16.80
2016,07,22,04,07,16.80
2016,07,22,04,08,16.80
2016,07,22,04,09,16.80
2016,07,22,04,10,16.80
2016,07,22,04,11,16.80
2016,07,22,04,12,16.80
2016,07,22,04,13,16.80
2016,07,22,04,14,16.70
2016,07,22,04,15,16.80
2016,07,22,04,16,16.80
2016,07,22,04,17,16.80
2016,07,22,04,18,16.80
2016,07,22,04,19,16.80
2016,07,22,04,20,16.80
2016,07,22,04,21,16.80
2016,07,22,04,22,16.80
2016,07,22,04,23,16.80
2016,07,22,04,24,16.80
2016,07,22,04,25,16.80
2016,07,22,04,26,16.80
2016,07,22,04,27,16.70
2016,07,22,04,28,16.70
2016,07,22,04,29,16.70
2016,07,22,04,30,16.70
2016,07,22,04,31,16.70
2016,07,22,04,32,16.70
2016,07,22,04,33,16.80
2016,07,22,04,34,16.80
2016,07,22,04,35,16.90
2016,07,22,04,36,17.00
2016,07,22,04,37,17.20
2016,07,22,04,38,17.30
2016,07,22,04,39,17.40
2016,07,22,04,40,17.50
2016,07,22,04,41,17.60
2016,07,22,04,42,17.70
2016,07,22,04,43,17.80
2016,07,22,04,44,17.90
2016,07,22,04,45,17.90
2016,07,22,04,46,18.00
2016,07,22,04,47,17.90
2016,07,22,04,48,17.90
2016,07,22,04,49,17.90
2016,07,22,04,50,17.80
2016,07,22,04,51,17.70
2016,07,22,04,52,17.70
2016,07,22,04,53,17.60
2016,07,22,04,54,17.60
2016,07,22,04,55,17.50
2016,07,22,04,56,17.50
2016,07,22,04,57,17.40
2016,07,22,04,58,17.40
2016,07,22,04,59,17.40
2016,07,22,05,00,17.40
2016,07,22,05,01,17.40
2016,07,22,05,02,17.40
2016,07,22,05,03,17.30
2016,07,22,05,04,17.30
2016,07,22,05,05,17.30
2016,07,22,05,06,17.30
2016,07,22,05,07,17.30
2016,07,22,05,08,17.30
2016,07,22,05,09,17.30
2016,07,22,05,10,17.30
2016,07,22,05,11,17.30
2016,07,22,05,12,17.30
2016,07,22,05,13,17.30
2016,07,22,05,14,17.30
2016,07,22,05,15,17.30
2016,07,22,05,16,17.30
2016,07,22,05,17,17.30
2016,07,22,05,18,17.20
2016,07,22,05,19,17.20
2016,07,22,05,20,17.20
2016,07,22,05,21,17.20
2016,07,22,05,22,17.20
2016,07,22,05,23,17.20
2016,07,22,05,24,17.20
2016,07,22,05,25,17.20
2016,07,22,05,26,17.20
2016,07,22,05,27,17.20
2016,07,22,05,28,17.20
2016,07,22,05,29,17.20
2016,07,22,05,30,17.20
2016,07,22,05,31,17.20
2016,07,22,05,32,17.20
2016,07,22,05,33,17.20
2016,07,22,05,34,17.20
2016,07,22,05,35,17.20
2016,07,22,05,36,17.20
2016,07,22,05,37,17.20
2016,07,22,05,38,17.20
2016,07,22,05,39,17.20
2016,07,22,05,40,17.20
2016,07,22,05,41,17.30
2016,07,22,05,42,17.30
2016,07,22,05,43,17.30
2016,07,22,05,44,17.20
2016,07,22,05,45,17.30
2016,07,22,05,46,17.30
2016,07,22,05,47,17.30
2016,07,22,05,48,17.30
2016,07,22,05,49,17.30
2016,07,22,05,50,17.40
2016,07,22,05,51,17.40
2016,07,22,05,52,17.50
2016,07,22,05,53,17.60
2016,07,22,05,54,17.70
2016,07,22,05,55,17.80
2016,07,22,05,56,17.90
2016,07,22,05,57,18.00
2016,07,22,05,58,18.10
2016,07,22,05,59,18.20
2016,07,22,06,00,18.30
2016,07,22,06,01,18.30
2016,07,22,06,02,18.40
2016,07,22,06,03,18.40
2016,07,22,06,04,18.50
2016,07,22,06,05,18.50
2016,07,22,06,06,18.60
2016,07,22,06,07,18.60
2016,07,22,06,08,18.70
2016,07,22,06,09,18.70
2016,07,22,06,10,18.70
2016,07,22,06,11,18.80
2016,07,22,06,12,18.80
2016,07,22,06,13,18.80
2016,07,22,06,14,18.80
2016,07,22,06,15,18.80
2016,07,22,06,16,18.80
2016,07,22,06,17,18.80
2016,07,22,06,18,18.80
2016,07,22,06,19,18.80
2016,07,22,06,20,18.80
2016,07,22,06,21,18.80
2016,07,22,06,22,18.80
2016,07,22,06,23,18.80
2016,07,22,06,24,18.70
2016,07,22,06,25,18.70
2016,07,22,06,26,18.70
2016,07,22,06,27,18.70
2016,07,22,06,28,18.70
2016,07,22,06,29,18.70
2016,07,22,06,30,18.70
2016,07,22,06,31,18.70
2016,07,22,06,32,18.70
2016,07,22,06,33,18.70
2016,07,22,06,34,18.70
2016,07,22,06,35,18.70
2016,07,22,06,36,18.70
2016,07,22,06,37,18.70
2016,07,22,06,38,18.70
2016,07,22,06,39,18.70
2016,07,22,06,40,18.70
2016,07,22,06,41,18.70
2016,07,22,06,42,18.70
2016,07,22,06,43,18.70
2016,07,22,06,44,18.70
2016,07,22,06,45,18.60
2016,07,22,06,46,18.60
2016,07,22,06,47,18.60
2016,07,22,06,48,18.60
2016,07,22,06,49,18.60
2016,07,22,06,50,18.60
2016,07,22,06,51,18.60
2016,07,22,06,52,18.60
2016,07,22,06,53,18.60
2016,07,22,06,54,18.60
2016,07,22,06,55,18.60
2016,07,22,06,56,18.60
2016,07,22,06,57,18.60
2016,07,22,06,58,18.60
2016,07,22,06,59,18.60
2016,07,22,07,00,18.60
2016,07,22,07,01,18.60
2016,07,22,07,02,18.60
2016,07,22,07,03,18.60
2016,07,22,07,04,18.60
2016,07,22,07,05,18.60
2016,07,22,07,06,18.60
2016,07,22,07,07,18.60
2016,07,22,07,08,18.50
2016,07,22,07,09,18.50
2016,07,22,07,10,18.50
2016,07,22,07,11,18.50
2016,07,22,07,12,18.50
2016,07,22,07,13,18.50
2016,07,22,07,14,18.50
2016,07,22,07,15,18.50
2016,07,22,07,16,18.40
2016,07,22,07,17,18.40
2016,07,22,07,18,18.40
2016,07,22,07,19,18.40
2016,07,22,07,20,18.40
2016,07,22,07,21,18.40
2016,07,22,07,22,18.40
2016,07,22,07,23,18.40
2016,07,22,07,24,18.40
2016,07,22,07,25,18.40
2016,07,22,07,26,18.40
2016,07,22,07,27,18.40
2016,07,22,07,28,18.40
2016,07,22,07,29,18.40
2016,07,22,07,30,18.30
2016,07,22,07,31,18.30
2016,07,22,07,32,18.30
2016,07,22,07,33,18.30
2016,07,22,07,34,18.30
2016,07,22,07,35,18.30
2016,07,22,07,36,18.30
2016,07,22,07,37,18.30
2016,07,22,07,38,18.30
2016,07,22,07,39,18.30
2016,07,22,07,40,18.30
2016,07,22,07,41,18.30
2016,07,22,07,42,18.20
2016,07,22,07,43,18.20
2016,07,22,07,44,18.20
2016,07,22,07,45,18.20
2016,07,22,07,46,18.20
2016,07,22,07,47,18.20
2016,07,22,07,48,18.20
2016,07,22,07,49,18.20
2016,07,22,07,50,18.20
2016,07,22,07,51,18.20
2016,07,22,07,52,18.20
2016,07,22,07,53,18.20
2016,07,22,07,54,18.10
2016,07,22,07,55,18.10
2016,07,22,07,56,18.10
2016,07,22,07,57,18.10
2016,07,22,07,58,18.10
2016,07,22,07,59,18.10
2016,07,22,08,00,18.10
2016,07,22,08,01,18.10
2016,07,22,08,02,18.10
2016,07,22,08,03,18.10
2016,07,22,08,04,18.10
2016,07,22,08,05,18.10
2016,07,22,08,06,18.10
2016,07,22,08,07,18.10
2016,07,22,08,08,18.10
2016,07,22,08,09,18.10
2016,07,22,08,10,18.10
2016,07,22,08,11,18.10
2016,07,22,08,12,18.10
2016,07,22,08,13,18.10
2016,07,22,08,14,18.10
2016,07,22,08,15,18.10
2016,07,22,08,16,18.10
2016,07,22,08,17,18.10
2016,07,22,08,18,18.10
2016,07,22,08,19,18.10
2016,07,22,08,20,18.10
2016,07,22,08,21,18.10
2016,07,22,08,22,18.10
2016,07,22,08,23,18.10
2016,07,22,08,24,18.10
2016,07,22,08,25,18.10
2016,07,22,08,26,18.10
2016,07,22,08,27,18.10
2016,07,22,08,28,18.10
2016,07,22,08,29,18.10
2016,07,22,08,30,18.20
2016,07,22,08,31,18.20
2016,07,22,08,32,18.20
2016,07,22,08,33,18.20
2016,07,22,08,34,18.20
2016,07,22,08,35,18.20
2016,07,22,08,36,18.20
2016,07,22,08,37,18.30
2016,07,22,08,38,18.30
2016,07,22,08,39,18.30
2016,07,22,08,40,18.30
2016,07,22,08,41,18.40
2016,07,22,08,42,18.40
2016,07,22,08,43,18.40
2016,07,22,08,44,18.50
2016,07,22,08,45,18.50
2016,07,22,08,46,18.60
2016,07,22,08,47,18.60
2016,07,22,08,48,18.60
2016,07,22,08,49,18.70
2016,07,22,08,50,18.70
2016,07,22,08,51,18.70
2016,07,22,08,52,18.80
2016,07,22,08,53,18.80
2016,07,22,08,54,18.90
2016,07,22,08,55,19.00
2016,07,22,08,56,19.10
2016,07,22,08,57,19.10
2016,07,22,08,58,19.20
2016,07,22,08,59,19.30
2016,07,22,09,00,19.30
2016,07,22,09,01,19.30
2016,07,22,09,02,19.30
2016,07,22,09,03,19.30
2016,07,22,09,04,19.40
2016,07,22,09,05,19.40
2016,07,22,09,06,19.40
2016,07,22,09,07,19.40
2016,07,22,09,08,19.50
2016,07,22,09,09,19.50
2016,07,22,09,10,19.60
2016,07,22,09,11,19.60
2016,07,22,09,12,19.60
2016,07,22,09,13,19.70
2016,07,22,09,14,19.70
2016,07,22,09,15,19.80
2016,07,22,09,16,19.80
2016,07,22,09,17,19.80
2016,07,22,09,18,19.80
2016,07,22,09,19,19.80
2016,07,22,09,20,19.80
2016,07,22,09,21,19.80
2016,07,22,09,22,19.80
2016,07,22,09,23,19.80
2016,07,22,09,24,19.80
2016,07,22,09,25,19.80
2016,07,22,09,26,19.70
2016,07,22,09,27,19.70
2016,07,22,09,28,19.70
2016,07,22,09,29,19.70
2016,07,22,09,30,19.80
2016,07,22,09,31,19.80
2016,07,22,09,32,19.80
2016,07,22,09,33,19.90
2016,07,22,09,34,19.90
2016,07,22,09,35,19.90
2016,07,22,09,36,20.00
2016,07,22,09,37,20.10
2016,07,22,09,38,20.10
2016,07,22,09,39,20.10
2016,07,22,09,40,20.10
2016,07,22,09,41,20.20
2016,07,22,09,42,20.20
2016,07,22,09,43,20.20
2016,07,22,09,44,20.20
2016,07,22,09,45,20.20
2016,07,22,09,46,20.20
2016,07,22,09,47,20.20
2016,07,22,09,48,20.30
2016,07,22,09,49,20.30
2016,07,22,09,50,20.30
2016,07,22,09,51,20.30
2016,07,22,09,52,20.30
2016,07,22,09,53,20.30
2016,07,22,09,54,20.30
2016,07,22,09,55,20.30
2016,07,22,09,56,20.30
2016,07,22,09,57,20.40
2016,07,22,09,58,20.50
2016,07,22,09,59,20.60
2016,07,22,10,00,20.60
2016,07,22,10,01,20.60
2016,07,22,10,02,20.60
2016,07,22,10,03,20.70
2016,07,22,10,04,20.70
2016,07,22,10,05,20.70
2016,07,22,10,06,20.70
2016,07,22,10,07,20.70
2016,07,22,10,08,20.70
2016,07,22,10,09,20.70
2016,07,22,10,10,20.80
2016,07,22,10,11,20.80
2016,07,22,10,12,20.80
2016,07,22,10,13,20.90
2016,07,22,10,14,20.90
2016,07,22,10,15,21.00
2016,07,22,10,16,21.10
2016,07,22,10,17,21.10
2016,07,22,10,18,21.10
2016,07,22,10,19,21.20
2016,07,22,10,20,21.20
2016,07,22,10,21,21.20
2016,07,22,10,22,21.20
2016,07,22,10,23,21.20
2016,07,22,10,24,21.10
2016,07,22,10,25,21.10
2016,07,22,10,26,21.10
2016,07,22,10,27,21.10
2016,07,22,10,28,21.10
2016,07,22,10,29,21.10
2016,07,22,10,30,21.10
2016,07,22,10,31,21.10
2016,07,22,10,32,21.10
2016,07,22,10,33,21.00
2016,07,22,10,34,21.00
2016,07,22,10,35,21.00
2016,07,22,10,36,21.00
2016,07,22,10,37,21.00
2016,07,22,10,38,21.00
2016,07,22,10,39,21.00
2016,07,22,10,40,21.10
2016,07,22,10,41,21.10
2016,07,22,10,42,21.10
2016,07,22,10,43,21.20
2016,07,22,10,44,21.20
2016,07,22,10,45,21.30
2016,07,22,10,46,21.30
2016,07,22,10,47,21.30
2016,07,22,10,48,21.40
2016,07,22,10,49,21.40
2016,07,22,10,50,21.40
2016,07,22,10,51,21.40
2016,07,22,10,52,21.40
2016,07,22,10,53,21.40
2016,07,22,10,54,21.40
2016,07,22,10,55,21.50
2016,07,22,10,56,21.50
2016,07,22,10,57,21.50
2016,07,22,10,58,21.60
2016,07,22,10,59,21.60
2016,07,22,11,00,21.60
2016,07,22,11,01,21.70
2016,07,22,11,02,21.80
2016,07,22,11,03,21.90
2016,07,22,11,04,22.00
2016,07,22,11,05,22.00
2016,07,22,11,06,22.00
2016,07,22,11,07,22.10
2016,07,22,11,08,22.10
2016,07,22,11,09,22.10
2016,07,22,11,10,22.10
2016,07,22,11,11,22.10
2016,07,22,11,12,22.20
2016,07,22,11,13,22.20
2016,07,22,11,14,22.10
2016,07,22,11,15,22.00
2016,07,22,11,16,21.90
2016,07,22,11,17,21.90
2016,07,22,11,18,21.80
2016,07,22,11,19,21.60
2016,07,22,11,20,21.40
2016,07,22,11,21,21.30
2016,07,22,11,22,21.10
2016,07,22,11,23,21.00
2016,07,22,11,24,20.80
2016,07,22,11,25,20.80
2016,07,22,11,26,20.70
2016,07,22,11,27,20.70
2016,07,22,11,28,20.70
2016,07,22,11,29,20.70
2016,07,22,11,30,20.60
2016,07,22,11,31,20.60
2016,07,22,11,32,20.50
2016,07,22,11,33,20.40
2016,07,22,11,34,20.40
2016,07,22,11,35,20.40
2016,07,22,11,36,20.40
2016,07,22,11,37,20.40
2016,07,22,11,38,20.40
2016,07,22,11,39,20.40
2016,07,22,11,40,20.40
2016,07,22,11,41,20.40
2016,07,22,11,42,20.40
2016,07,22,11,43,20.40
2016,07,22,11,44,20.50
2016,07,22,11,45,20.50
2016,07,22,11,46,20.50
2016,07,22,11,47,20.60
2016,07,22,11,48,20.60
2016,07,22,11,49,20.70
2016,07,22,11,50,20.70
2016,07,22,11,51,20.70
2016,07,22,11,52,20.80
2016,07,22,11,53,20.80
2016,07,22,11,54,20.80
2016,07,22,11,55,20.80
2016,07,22,11,56,20.80
2016,07,22,11,57,20.80
2016,07,22,11,58,20.90
2016,07,22,11,59,20.90
2016,07,22,12,00,20.90
2016,07,22,12,01,21.00
2016,07,22,12,02,21.00
2016,07,22,12,03,21.10
2016,07,22,12,04,21.10
2016,07,22,12,05,21.20
2016,07,22,12,06,21.20
2016,07,22,12,07,21.30
2016,07,22,12,08,21.30
2016,07,22,12,09,21.30
2016,07,22,12,10,21.30
2016,07,22,12,11,21.20
2016,07,22,12,12,21.20
2016,07,22,12,13,21.20
2016,07,22,12,14,21.20
2016,07,22,12,15,21.10
2016,07,22,12,16,21.10
2016,07,22,12,17,21.10
2016,07,22,12,18,21.10
2016,07,22,12,19,21.10
2016,07,22,12,20,21.10
2016,07,22,12,21,21.10
2016,07,22,12,22,21.10
2016,07,22,12,23,21.20
2016,07,22,12,24,21.20
2016,07,22,12,25,21.30
2016,07,22,12,26,21.30
2016,07,22,12,27,21.30
2016,07,22,12,28,21.30
2016,07,22,12,29,21.40
2016,07,22,12,30,21.40
2016,07,22,12,31,21.40
2016,07,22,12,32,21.40
2016,07,22,12,33,21.40
2016,07,22,12,34,21.40
2016,07,22,12,35,21.40
2016,07,22,12,36,21.40
2016,07,22,12,37,21.30
2016,07,22,12,38,21.30
2016,07,22,12,39,21.30
2016,07,22,12,40,21.30
2016,07,22,12,41,21.40
2016,07,22,12,42,21.40
2016,07,22,12,43,21.50
2016,07,22,12,44,21.50
2016,07,22,12,45,21.60
2016,07,22,12,46,21.60
2016,07,22,12,47,21.60
2016,07,22,12,48,21.70
2016,07,22,12,49,21.80
2016,07,22,12,50,21.80
2016,07,22,12,51,21.90
2016,07,22,12,52,21.90
2016,07,22,12,53,21.90
2016,07,22,12,54,22.00
2016,07,22,12,55,22.00
2016,07,22,12,56,22.10
2016,07,22,12,57,22.10
2016,07,22,12,58,22.10
2016,07,22,12,59,22.10
2016,07,22,13,00,22.10
2016,07,22,13,01,22.10
2016,07,22,13,02,22.10
2016,07,22,13,03,22.00
2016,07,22,13,04,22.00
2016,07,22,13,05,21.90
2016,07,22,13,06,21.90
2016,07,22,13,07,21.90
2016,07,22,13,08,21.80
2016,07,22,13,09,21.80
2016,07,22,13,10,21.90
2016,07,22,13,11,21.90
2016,07,22,13,12,21.90
2016,07,22,13,13,22.00
2016,07,22,13,14,22.00
2016,07,22,13,15,22.10
2016,07,22,13,16,22.10
2016,07,22,13,17,22.10
2016,07,22,13,18,22.10
2016,07,22,13,19,22.00
2016,07,22,13,20,22.10
2016,07,22,13,21,22.10
2016,07,22,13,22,22.20
2016,07,22,13,23,22.30
2016,07,22,13,24,22.40
2016,07,22,13,25,22.50
2016,07,22,13,26,22.50
2016,07,22,13,27,22.50
2016,07,22,13,28,22.60
2016,07,22,13,29,22.60
2016,07,22,13,30,22.60
2016,07,22,13,31,22.60
2016,07,22,13,32,22.60
2016,07,22,13,33,22.70
2016,07,22,13,34,22.70
2016,07,22,13,35,22.70
2016,07,22,13,36,22.70
2016,07,22,13,37,22.80
2016,07,22,13,38,22.80
2016,07,22,13,39,22.80
2016,07,22,13,40,22.90
2016,07,22,13,41,22.90
2016,07,22,13,42,22.90
2016,07,22,13,43,23.00
2016,07,22,13,44,23.00
2016,07,22,13,45,23.10
2016,07,22,13,46,23.10
2016,07,22,13,47,23.10
2016,07,22,13,48,23.20
2016,07,22,13,49,23.20
2016,07,22,13,50,23.20
2016,07,22,13,51,23.20
2016,07,22,13,52,23.20
2016,07,22,13,53,23.20
2016,07,22,13,54,23.20
2016,07,22,13,55,23.30
2016,07,22,13,56,23.40
2016,07,22,13,57,23.40
2016,07,22,13,58,23.50
2016,07,22,13,59,23.50
2016,07,22,14,00,23.40
2016,07,22,14,01,23.40
2016,07,22,14,02,23.40
2016,07,22,14,03,23.50
2016,07,22,14,04,23.50
2016,07,22,14,05,23.60
2016,07,22,14,06,23.60
2016,07,22,14,07,23.70
2016,07,22,14,08,23.80
2016,07,22,14,09,23.90
2016,07,22,14,10,23.90
2016,07,22,14,11,23.80
2016,07,22,14,12,23.70
2016,07,22,14,13,23.60
2016,07,22,14,14,23.50
2016,07,22,14,15,23.40
2016,07,22,14,16,23.40
2016,07,22,14,17,23.40
2016,07,22,14,18,23.40
2016,07,22,14,19,23.40
2016,07,22,14,20,23.40
2016,07,22,14,21,23.40
2016,07,22,14,22,23.40
2016,07,22,14,23,23.40
2016,07,22,14,24,23.50
2016,07,22,14,25,23.50
2016,07,22,14,26,23.50
2016,07,22,14,27,23.50
2016,07,22,14,28,23.50
2016,07,22,14,29,23.50
2016,07,22,14,30,23.50
2016,07,22,14,31,23.50
2016,07,22,14,32,23.60
2016,07,22,14,33,23.70
2016,07,22,14,34,23.90
2016,07,22,14,35,24.00
2016,07,22,14,36,24.00
2016,07,22,14,37,24.00
2016,07,22,14,38,23.90
2016,07,22,14,39,23.80
2016,07,22,14,40,23.60
2016,07,22,14,41,23.60
2016,07,22,14,42,23.60
2016,07,22,14,43,23.50
2016,07,22,14,44,23.50
2016,07,22,14,45,23.50
2016,07,22,14,46,23.50
2016,07,22,14,47,23.60
2016,07,22,14,48,23.70
2016,07,22,14,49,23.70
2016,07,22,14,50,23.80
2016,07,22,14,51,23.90
2016,07,22,14,52,23.90
2016,07,22,14,53,24.00
2016,07,22,14,54,24.10
2016,07,22,14,55,24.20
2016,07,22,14,56,24.30
2016,07,22,14,57,24.40
2016,07,22,14,58,24.50
2016,07,22,14,59,24.60
2016,07,22,15,00,24.70
2016,07,22,15,01,24.60
2016,07,22,15,02,24.60
2016,07,22,15,03,24.50
2016,07,22,15,04,24.50
2016,07,22,15,05,24.40
2016,07,22,15,06,24.40
2016,07,22,15,07,24.50
2016,07,22,15,08,24.50
2016,07,22,15,09,24.60
2016,07,22,15,10,24.60
2016,07,22,15,11,24.60
2016,07,22,15,12,24.70
2016,07,22,15,13,24.70
2016,07,22,15,14,24.80
2016,07,22,15,15,24.80
2016,07,22,15,16,24.80
2016,07,22,15,17,24.70
2016,07,22,15,18,24.60
2016,07,22,15,19,24.50
2016,07,22,15,20,24.40
2016,07,22,15,21,24.40
2016,07,22,15,22,24.30
2016,07,22,15,23,24.30
2016,07,22,15,24,24.30
2016,07,22,15,25,24.30
2016,07,22,15,26,24.30
2016,07,22,15,27,24.30
2016,07,22,15,28,24.20
2016,07,22,15,29,24.20
2016,07,22,15,30,24.20
2016,07,22,15,31,24.10
2016,07,22,15,32,24.10
2016,07,22,15,33,23.90
2016,07,22,15,34,23.80
2016,07,22,15,35,23.70
2016,07,22,15,36,23.60
2016,07,22,15,37,23.60
2016,07,22,15,38,23.50
2016,07,22,15,39,23.50
2016,07,22,15,40,23.50
2016,07,22,15,41,23.60
2016,07,22,15,42,23.60
2016,07,22,15,43,23.70
2016,07,22,15,44,23.70
2016,07,22,15,45,23.70
2016,07,22,15,46,23.70
2016,07,22,15,47,23.70
2016,07,22,15,48,23.70
2016,07,22,15,49,23.60
2016,07,22,15,50,23.60
2016,07,22,15,51,23.50
2016,07,22,15,52,23.40
2016,07,22,15,53,23.30
2016,07,22,15,54,23.20
2016,07,22,15,55,23.20
2016,07,22,15,56,23.20
2016,07,22,15,57,23.20
2016,07,22,15,58,23.20
2016,07,22,15,59,23.20
2016,07,22,16,00,23.10
2016,07,22,16,01,23.10
2016,07,22,16,02,23.10
2016,07,22,16,03,23.10
2016,07,22,16,04,23.10
2016,07,22,16,05,23.10
2016,07,22,16,06,23.10
2016,07,22,16,07,23.10
2016,07,22,16,08,23.10
2016,07,22,16,09,23.10
2016,07,22,16,10,23.10
2016,07,22,16,11,23.10
2016,07,22,16,12,23.10
2016,07,22,16,13,23.20
2016,07,22,16,14,23.20
2016,07,22,16,15,23.30
2016,07,22,16,16,23.40
2016,07,22,16,17,23.40
2016,07,22,16,18,23.50
2016,07,22,16,19,23.50
2016,07,22,16,20,23.60
2016,07,22,16,21,23.60
2016,07,22,16,22,23.60
2016,07,22,16,23,23.60
2016,07,22,16,24,23.50
2016,07,22,16,25,23.30
2016,07,22,16,26,23.30
2016,07,22,16,27,23.30
2016,07,22,16,28,23.30
2016,07,22,16,29,23.30
2016,07,22,16,30,23.30
2016,07,22,16,31,23.30
2016,07,22,16,32,23.30
2016,07,22,16,33,23.30
2016,07,22,16,34,23.20
2016,07,22,16,35,23.20
2016,07,22,16,36,23.20
2016,07,22,16,37,23.20
2016,07,22,16,38,23.20
2016,07,22,16,39,23.30
2016,07,22,16,40,23.30
2016,07,22,16,41,23.30
2016,07,22,16,42,23.40
2016,07,22,16,43,23.50
2016,07,22,16,44,23.50
2016,07,22,16,45,23.60
2016,07,22,16,46,23.80
2016,07,22,16,47,23.80
2016,07,22,16,48,23.90
2016,07,22,16,49,24.00
2016,07,22,16,50,24.00
2016,07,22,16,51,24.10
2016,07,22,16,52,24.20
2016,07,22,16,53,24.20
2016,07,22,16,54,24.10
2016,07,22,16,55,24.00
2016,07,22,16,56,24.00
2016,07,22,16,57,23.90
2016,07,22,16,58,23.90
2016,07,22,16,59,23.80
2016,07,22,17,00,23.80
2016,07,22,17,01,23.80
2016,07,22,17,02,23.80
2016,07,22,17,03,23.70
2016,07,22,17,04,23.70
2016,07,22,17,05,23.60
2016,07,22,17,06,23.60
2016,07,22,17,07,23.60
2016,07,22,17,08,23.50
2016,07,22,17,09,23.40
2016,07,22,17,10,23.20
2016,07,22,17,11,23.10
2016,07,22,17,12,23.10
2016,07,22,17,13,23.10
2016,07,22,17,14,23.00
2016,07,22,17,15,23.00
2016,07,22,17,16,23.00
2016,07,22,17,17,23.10
2016,07,22,17,18,23.10
2016,07,22,17,19,23.10